Time,TemperatureF,DewpointF,PressureIn,WindDirection,WindDirectionDegrees,WindSpeedMPH,WindSpeedGustMPH,Humidity,HourlyPrecipIn,Conditions,Clouds,dailyrainin,SolarRadiationWatts/m^2,SoftwareType,DateUTC
2013-02-22 00:21:00,34.0,34.0,-100.00,WNW,301,10.0,22.0,100,0.06,,,0.66,0.000000,,2013-02-22 09:21:00,
2013-02-22 00:31:00,34.0,34.0,-100.00,WNW,301,10.0,22.0,100,0.06,,,0.66,0.000000,,2013-02-22 09:31:00,
2013-02-22 00:41:00,34.0,34.0,-100.00,WNW,301,10.0,22.0,100,0.06,,,0.66,0.000000,,2013-02-22 09:41:00,
2013-02-22 00:51:00,34.0,34.0,-100.00,WNW,301,10.0,22.0,100,0.06,,,0.66,0.000000,,2013-02-22 09:51:00,
2013-02-22 01:21:00,35.0,35.0,-100.00,NW,314,9.0,27.0,100,0.06,,,0.70,0.000000,,2013-02-22 10:21:00,
2013-02-22 01:31:00,35.0,35.0,-100.00,NW,314,9.0,27.0,100,0.06,,,0.70,0.000000,,2013-02-22 10:31:00,
2013-02-22 01:42:00,35.0,35.0,-100.00,NW,314,9.0,27.0,100,0.06,,,0.70,0.000000,,2013-02-22 10:42:00,
2013-02-22 01:51:00,35.0,35.0,-100.00,NW,314,9.0,27.0,100,0.06,,,0.70,0.000000,,2013-02-22 10:51:00,
2013-02-22 02:21:00,35.0,35.0,-100.00,WNW,284,5.0,14.0,100,0.02,,,0.67,0.000000,,2013-02-22 11:21:00,
2013-02-22 02:32:00,35.0,35.0,-100.00,WNW,284,5.0,14.0,100,0.02,,,0.67,0.000000,,2013-02-22 11:32:00,
2013-02-22 02:42:00,35.0,35.0,-100.00,WNW,284,5.0,14.0,100,0.02,,,0.67,0.000000,,2013-02-22 11:42:00,
2013-02-22 02:52:00,35.0,35.0,-100.00,WNW,284,5.0,14.0,100,0.02,,,0.67,0.000000,,2013-02-22 11:52:00,
2013-02-22 03:21:00,34.0,34.0,-100.00,NNW,346,6.0,11.0,100,0.02,,,0.68,0.000000,,2013-02-22 12:21:00,
2013-02-22 03:32:00,34.0,34.0,-100.00,NNW,346,6.0,11.0,100,0.02,,,0.68,0.000000,,2013-02-22 12:32:00,
2013-02-22 03:42:00,34.0,34.0,-100.00,NNW,346,6.0,11.0,100,0.02,,,0.68,0.000000,,2013-02-22 12:42:00,
2013-02-22 03:52:00,34.0,34.0,-100.00,NNW,346,6.0,11.0,100,0.02,,,0.68,0.000000,,2013-02-22 12:52:00,
2013-02-22 04:22:00,34.0,34.0,-100.00,NW,314,5.0,14.0,100,0.08,,,0.76,0.000000,,2013-02-22 13:22:00,
2013-02-22 04:31:00,34.0,34.0,-100.00,NW,314,5.0,14.0,100,0.08,,,0.76,0.000000,,2013-02-22 13:31:00,
2013-02-22 04:41:00,34.0,34.0,-100.00,NW,314,5.0,14.0,100,0.08,,,0.76,0.000000,,2013-02-22 13:41:00,
2013-02-22 04:51:00,34.0,34.0,-100.00,NW,314,5.0,14.0,100,0.08,,,0.76,0.000000,,2013-02-22 13:51:00,
2013-02-22 05:21:00,33.0,33.0,-100.00,WNW,303,5.0,11.0,100,0.02,,,0.78,0.000000,,2013-02-22 14:21:00,
2013-02-22 05:32:00,33.0,33.0,-100.00,WNW,303,5.0,11.0,100,0.02,,,0.78,0.000000,,2013-02-22 14:32:00,
2013-02-22 05:42:00,33.0,33.0,-100.00,WNW,303,5.0,11.0,100,0.02,,,0.78,0.000000,,2013-02-22 14:42:00,
2013-02-22 05:52:00,33.0,33.0,-100.00,WNW,303,5.0,11.0,100,0.02,,,0.78,0.000000,,2013-02-22 14:52:00,
2013-02-22 06:21:00,34.0,34.0,-100.00,NW,312,6.0,13.0,100,0.03,,,-99.99,0.000000,,2013-02-22 15:21:00,
2013-02-22 06:32:00,34.0,34.0,-100.00,NW,312,6.0,13.0,100,0.03,,,-99.99,0.000000,,2013-02-22 15:32:00,
2013-02-22 06:41:00,34.0,34.0,-100.00,NW,312,6.0,13.0,100,0.03,,,-99.99,0.000000,,2013-02-22 15:41:00,
2013-02-22 06:51:00,34.0,34.0,-100.00,NW,312,6.0,13.0,100,0.03,,,-99.99,0.000000,,2013-02-22 15:51:00,
2013-02-22 07:21:00,33.0,33.0,-100.00,NNW,334,6.0,11.0,100,0.01,,,0.82,0.000000,,2013-02-22 16:21:00,
2013-02-22 07:31:00,33.0,33.0,-100.00,NNW,334,6.0,11.0,100,0.01,,,0.82,0.000000,,2013-02-22 16:31:00,
2013-02-22 07:41:00,33.0,33.0,-100.00,NNW,334,6.0,11.0,100,0.01,,,0.82,0.000000,,2013-02-22 16:41:00,
2013-02-22 07:52:00,33.0,33.0,-100.00,NNW,334,6.0,11.0,100,0.01,,,0.82,0.000000,,2013-02-22 16:52:00,
2013-02-22 08:21:00,33.0,33.0,-100.00,WNW,301,4.0,10.0,100,0.02,,,0.84,11.000000,,2013-02-22 17:21:00,
2013-02-22 08:31:00,33.0,33.0,-100.00,WNW,301,4.0,10.0,100,0.02,,,0.84,11.000000,,2013-02-22 17:31:00,
2013-02-22 08:42:00,33.0,33.0,-100.00,WNW,301,4.0,10.0,100,0.02,,,0.84,11.000000,,2013-02-22 17:42:00,
2013-02-22 08:52:00,33.0,33.0,-100.00,WNW,301,4.0,10.0,100,0.02,,,0.84,11.000000,,2013-02-22 17:52:00,
2013-02-22 09:22:00,35.0,35.0,-100.00,WNW,292,4.0,9.0,100,0.01,,,0.82,49.000000,,2013-02-22 18:22:00,
2013-02-22 09:32:00,35.0,35.0,-100.00,WNW,292,4.0,9.0,100,0.01,,,0.82,49.000000,,2013-02-22 18:32:00,
2013-02-22 09:42:00,35.0,35.0,-100.00,WNW,292,4.0,9.0,100,0.01,,,0.82,49.000000,,2013-02-22 18:42:00,
2013-02-22 09:51:00,35.0,35.0,-100.00,WNW,292,4.0,9.0,100,0.01,,,0.82,49.000000,,2013-02-22 18:51:00,
2013-02-22 10:11:00,36.0,36.0,-100.00,WNW,290,2.0,6.0,100,0.02,,,0.77,109.000000,,2013-02-22 19:11:00,
2013-02-22 10:21:00,36.0,36.0,-100.00,WNW,290,2.0,6.0,100,0.02,,,0.77,109.000000,,2013-02-22 19:21:00,
2013-02-22 10:31:00,36.0,36.0,-100.00,WNW,290,2.0,6.0,100,0.02,,,0.77,109.000000,,2013-02-22 19:31:00,
2013-02-22 10:41:00,36.0,36.0,-100.00,WNW,290,2.0,6.0,100,0.02,,,0.77,109.000000,,2013-02-22 19:41:00,
2013-02-22 10:51:00,36.0,36.0,-100.00,WNW,290,2.0,6.0,100,0.02,,,0.77,109.000000,,2013-02-22 19:51:00,
2013-02-22 11:21:00,36.0,36.0,-100.00,NNW,343,2.0,5.0,100,0.02,,,0.75,130.000000,,2013-02-22 20:21:00,
2013-02-22 11:31:00,36.0,36.0,-100.00,NNW,343,2.0,5.0,100,0.02,,,0.75,130.000000,,2013-02-22 20:31:00,
2013-02-22 11:41:00,36.0,36.0,-100.00,NNW,343,2.0,5.0,100,0.02,,,0.75,130.000000,,2013-02-22 20:41:00,
2013-02-22 11:52:00,36.0,36.0,-100.00,NNW,343,2.0,5.0,100,0.02,,,0.75,130.000000,,2013-02-22 20:52:00,
2013-02-22 12:21:00,38.0,38.0,-100.00,WNW,292,0.0,4.0,100,0.01,,,0.69,154.000000,,2013-02-22 21:21:00,
2013-02-22 12:31:00,38.0,38.0,-100.00,WNW,292,0.0,4.0,100,0.01,,,0.69,154.000000,,2013-02-22 21:31:00,
2013-02-22 12:42:00,38.0,38.0,-100.00,WNW,292,0.0,4.0,100,0.01,,,0.69,154.000000,,2013-02-22 21:42:00,
2013-02-22 12:51:00,38.0,38.0,-100.00,WNW,292,0.0,4.0,100,0.01,,,0.69,154.000000,,2013-02-22 21:51:00,
2013-02-22 13:21:00,37.0,37.0,-100.00,North,351,0.0,4.0,100,0.00,,,0.59,172.000000,,2013-02-22 22:21:00,
2013-02-22 13:31:00,37.0,37.0,-100.00,North,351,0.0,4.0,100,0.00,,,0.59,172.000000,,2013-02-22 22:31:00,
2013-02-22 13:41:00,37.0,37.0,-100.00,North,351,0.0,4.0,100,0.00,,,0.59,172.000000,,2013-02-22 22:41:00,
2013-02-22 13:51:00,37.0,37.0,-100.00,North,351,0.0,4.0,100,0.00,,,0.59,172.000000,,2013-02-22 22:51:00,
2013-02-22 14:21:00,36.0,36.0,-100.00,NNE,28,4.0,6.0,100,0.01,,,0.52,176.000000,,2013-02-22 23:21:00,
2013-02-22 14:31:00,36.0,36.0,-100.00,NNE,28,4.0,6.0,100,0.01,,,0.52,176.000000,,2013-02-22 23:31:00,
2013-02-22 14:41:00,36.0,36.0,-100.00,NNE,28,4.0,6.0,100,0.01,,,0.52,176.000000,,2013-02-22 23:41:00,
2013-02-22 14:52:00,36.0,36.0,-100.00,NNE,28,4.0,6.0,100,0.01,,,0.52,176.000000,,2013-02-22 23:52:00,
2013-02-22 15:21:00,37.0,37.0,-100.00,ENE,70,3.0,9.0,100,0.01,,,0.48,169.000000,,2013-02-23 00:21:00,
2013-02-22 15:32:00,37.0,37.0,-100.00,ENE,70,3.0,9.0,100,0.01,,,0.48,169.000000,,2013-02-23 00:32:00,
2013-02-22 15:41:00,37.0,37.0,-100.00,ENE,70,3.0,9.0,100,0.01,,,0.48,169.000000,,2013-02-23 00:41:00,
2013-02-22 15:51:00,37.0,37.0,-100.00,ENE,70,3.0,9.0,100,0.01,,,0.48,169.000000,,2013-02-23 00:51:00,
2013-02-22 16:21:00,38.0,38.0,-100.00,ESE,104,2.0,8.0,100,0.00,,,0.44,111.000000,,2013-02-23 01:21:00,
2013-02-22 16:31:00,38.0,38.0,-100.00,ESE,104,2.0,8.0,100,0.00,,,0.44,111.000000,,2013-02-23 01:31:00,
2013-02-22 16:41:00,38.0,38.0,-100.00,ESE,104,2.0,8.0,100,0.00,,,0.44,111.000000,,2013-02-23 01:41:00,
2013-02-22 16:51:00,38.0,38.0,-100.00,ESE,104,2.0,8.0,100,0.00,,,0.44,111.000000,,2013-02-23 01:51:00,
2013-02-22 17:21:00,35.0,35.0,-100.00,East,96,6.0,10.0,100,0.01,,,0.43,42.000000,,2013-02-23 02:21:00,
2013-02-22 17:31:00,35.0,35.0,-100.00,East,96,6.0,10.0,100,0.01,,,0.43,42.000000,,2013-02-23 02:31:00,
2013-02-22 17:41:00,35.0,35.0,-100.00,East,96,6.0,10.0,100,0.01,,,0.43,42.000000,,2013-02-23 02:41:00,
2013-02-22 17:52:00,35.0,35.0,-100.00,East,96,6.0,10.0,100,0.01,,,0.43,42.000000,,2013-02-23 02:52:00,
2013-02-22 18:21:00,35.0,35.0,-100.00,ESE,102,7.0,16.0,100,0.03,,,0.44,1.000000,,2013-02-23 03:21:00,
2013-02-22 18:31:00,35.0,35.0,-100.00,ESE,102,7.0,16.0,100,0.03,,,0.44,1.000000,,2013-02-23 03:31:00,
2013-02-22 18:41:00,35.0,35.0,-100.00,ESE,102,7.0,16.0,100,0.03,,,0.44,1.000000,,2013-02-23 03:41:00,
2013-02-22 18:51:00,35.0,35.0,-100.00,ESE,102,7.0,16.0,100,0.03,,,0.44,1.000000,,2013-02-23 03:51:00,
2013-02-22 19:21:00,35.0,35.0,-100.00,East,99,9.0,19.0,100,0.02,,,0.46,0.000000,,2013-02-23 04:21:00,
2013-02-22 19:31:00,35.0,35.0,-100.00,East,99,9.0,19.0,100,0.02,,,0.46,0.000000,,2013-02-23 04:31:00,
2013-02-22 19:41:00,35.0,35.0,-100.00,East,99,9.0,19.0,100,0.02,,,0.46,0.000000,,2013-02-23 04:41:00,
2013-02-22 19:51:00,35.0,35.0,-100.00,East,99,9.0,19.0,100,0.02,,,0.46,0.000000,,2013-02-23 04:51:00,
2013-02-22 20:22:00,34.0,34.0,-100.00,ESE,104,8.0,19.0,100,0.00,,,0.46,0.000000,,2013-02-23 05:22:00,
2013-02-22 20:32:00,34.0,34.0,-100.00,ESE,104,8.0,19.0,100,0.00,,,0.46,0.000000,,2013-02-23 05:32:00,
2013-02-22 20:41:00,34.0,34.0,-100.00,ESE,104,8.0,19.0,100,0.00,,,0.46,0.000000,,2013-02-23 05:41:00,
2013-02-22 20:52:00,34.0,34.0,-100.00,ESE,104,8.0,19.0,100,0.00,,,0.46,0.000000,,2013-02-23 05:52:00,
2013-02-22 21:11:00,33.0,33.0,-100.00,East,93,6.0,16.0,100,0.00,,,0.46,0.000000,,2013-02-23 06:11:00,
2013-02-22 21:22:00,33.0,33.0,-100.00,East,93,6.0,16.0,100,0.00,,,0.46,0.000000,,2013-02-23 06:22:00,
2013-02-22 21:31:00,33.0,33.0,-100.00,East,93,6.0,16.0,100,0.00,,,0.46,0.000000,,2013-02-23 06:31:00,
2013-02-22 21:41:00,33.0,33.0,-100.00,East,93,6.0,16.0,100,0.00,,,0.46,0.000000,,2013-02-23 06:41:00,
2013-02-22 21:51:00,33.0,33.0,-100.00,East,93,6.0,16.0,100,0.00,,,0.46,0.000000,,2013-02-23 06:51:00,
2013-02-22 22:21:00,34.0,34.0,-100.00,East,100,6.0,14.0,100,0.00,,,0.46,0.000000,,2013-02-23 07:21:00,
2013-02-22 22:31:00,34.0,34.0,-100.00,East,100,6.0,14.0,100,0.00,,,0.46,0.000000,,2013-02-23 07:31:00,
2013-02-22 22:41:00,34.0,34.0,-100.00,East,100,6.0,14.0,100,0.00,,,0.46,0.000000,,2013-02-23 07:41:00,
2013-02-22 22:51:00,34.0,34.0,-100.00,East,100,6.0,14.0,100,0.00,,,0.46,0.000000,,2013-02-23 07:51:00,
2013-02-22 23:21:00,33.0,33.0,-100.00,ESE,102,7.0,14.0,100,0.00,,,0.46,0.000000,,2013-02-23 08:21:00,
2013-02-22 23:31:00,33.0,33.0,-100.00,ESE,102,7.0,14.0,100,0.00,,,0.46,0.000000,,2013-02-23 08:31:00,
2013-02-22 23:41:00,33.0,33.0,-100.00,ESE,102,7.0,14.0,100,0.00,,,0.46,0.000000,,2013-02-23 08:41:00,
2013-02-22 23:52:00,33.0,33.0,-100.00,ESE,102,7.0,14.0,100,0.00,,,0.46,0.000000,,2013-02-23 08:52:00,